FW0327 Weather Reports


time (UTC)temp
C
wind
direction
speed
KPH
gust
KPH
rain 1hr
cm
rain 24hr
cm
rain mn
cm
humidity
%
barometer
mb
20260506062032 12 273 1.6 4.8 0.00 0.25 0.00 90 1006.9
20260506061032 12 283 0.0 1.6 0.00 0.25 0.00 91 1007.0
20260506051034 11 281 1.6 3.2 0.00 0.25 0.00 92 1006.7
20260506045055 11 288 1.6 4.8 0.00 0.25 0.00 93 1006.7
20260506044036 11 277 1.6 8.0 0.00 0.25 0.00 93 1006.7
20260506043036 11 281 1.6 4.8 0.00 0.25 0.00 94 1006.8
20260506042036 11 282 1.6 4.8 0.00 0.25 0.00 94 1006.8
20260506041057 11 282 1.6 4.8 0.00 0.25 0.00 94 1006.9
20260506040038 11 267 1.6 4.8 0.00 0.25 0.00 95 1006.8
20260506035038 11 281 1.6 4.8 0.00 0.25 0.00 94 1007.0
20260506034038 11 276 0.0 3.2 0.00 0.25 0.00 95 1007.0
20260506033059 11 321 1.6 4.8 0.00 0.25 0.00 94 1007.1
20260506032039 11 281 1.6 4.8 0.00 0.25 0.00 95 1007.1
20260506031039 11 289 1.6 4.8 0.00 0.25 0.00 95 1007.1
20260506030040 11 285 1.6 8.0 0.00 0.25 0.00 95 1007.3
20260506025040 11 287 1.6 4.8 0.00 0.25 0.00 96 1007.2
20260506024041 11 282 1.6 4.8 0.00 0.25 0.00 96 1007.2
20260506023041 11 283 0.0 3.2 0.00 0.25 0.00 96 1007.3
20260506022042 11 270 1.6 3.2 0.00 0.25 0.00 96 1007.2
20260506021102 11 277 1.6 4.8 0.00 0.25 0.00 96 1007.1
20260506020142 11 287 1.6 3.2 0.00 0.25 0.00 96 1007.1
20260506015043 12 280 1.6 8.0 0.00 0.25 0.00 96 1007.2
20260506014043 12 267 0.0 8.0 0.00 0.25 0.00 96 1007.4
20260506013044 12 292 1.6 8.0 0.00 0.25 0.00 96 1007.5
20260506012044 12 279 1.6 4.8 0.00 0.25 0.00 96 1007.6
20260506011036 12 278 1.6 9.7 0.00 0.25 0.00 95 1007.6
20260506010017 12 273 3.2 8.0 0.00 0.25 0.00 96 1007.7
20260506005018 12 286 3.2 8.0 0.00 0.25 0.00 96 1007.8
20260506004018 12 286 1.6 9.7 0.00 0.25 0.00 97 1007.8
20260506003018 12 297 1.6 4.8 0.00 0.25 0.00 97 1007.8
20260506002018 12 276 1.6 4.8 0.00 0.25 0.00 98 1007.8
20260506001019 12 293 0.0 1.6 0.00 0.25 0.00 98 1007.9
20260506000059 11 280 0.0 1.6 0.00 0.25 0.00 98 1008.0
20260505235020 11 282 0.0 3.2 0.00 0.25 0.00 98 1008.0
20260505234048 11 282 0.0 1.6 0.00 0.25 0.00 98 1008.1
20260505233021 11 275 0.0 1.6 0.00 0.25 0.00 98 1008.2
20260505232049 11 286 0.0 1.6 0.00 0.25 0.00 98 1008.1
20260505231022 11 292 0.0 1.6 0.00 0.25 0.00 97 1008.3
20260505230050 11 0.0 1.6 0.00 0.25 0.00 97 1008.2
20260505225043 12 0.0 0.0 0.00 0.25 0.00 97 1008.3
20260505224023 12 269 0.0 3.2 0.00 0.25 0.00 97 1008.3
20260505223051 12 282 0.0 1.6 0.00 0.25 0.00 97 1008.3
20260505222023 12 292 0.0 1.6 0.00 0.25 0.00 97 1008.2
20260505221024 12 290 0.0 1.6 0.00 0.25 0.00 97 1008.2
20260505220044 12 292 0.0 1.6 0.00 0.25 0.00 97 1008.3
20260505215024 12 0.0 0.0 0.03 0.25 0.25 97 1008.3
20260505214045 12 273 0.0 1.6 0.03 0.25 0.25 97 1008.2
20260505213026 12 0.0 0.0 0.03 0.25 0.25 96 1008.3
20260505212026 12 285 0.0 1.6 0.05 0.25 0.25 96 1008.4
20260505211046 12 281 0.0 1.6 0.05 0.25 0.25 96 1008.4
20260505210027 12 279 0.0 1.6 0.05 0.25 0.25 97 1008.3
20260505205027 12 285 0.0 3.2 0.03 0.23 0.23 97 1008.3
20260505204027 12 280 0.0 4.8 0.03 0.23 0.23 97 1008.4
20260505203028 12 263 0.0 3.2 0.05 0.23 0.23 97 1008.3
20260505202057 13 0.0 0.0 0.05 0.20 0.20 97 1008.3
20260505201029 13 285 0.0 1.6 0.08 0.20 0.20 97 1008.3
20260505200029 13 0.0 0.0 0.08 0.20 0.20 97 1008.2
20260505195030 13 0.0 0.0 0.08 0.20 0.20 97 1008.3
20260505194030 13 0.0 0.0 0.10 0.20 0.20 97 1008.2
20260505193031 13 0.0 0.0 0.08 0.18 0.18 96 1008.2
20260505192031 13 0.0 0.0 0.05 0.15 0.15 96 1008.1
20260505191051 13 0.0 0.0 0.03 0.13 0.13 96 1008.1
20260505190052 13 278 0.0 1.6 0.03 0.13 0.13 95 1008.0
20260505185032 13 282 0.0 1.6 0.03 0.13 0.13 95 1008.1
20260505184033 13 276 0.0 1.6 0.00 0.10 0.10 95 1008.0
20260505183017 13 280 0.0 1.6 0.00 0.10 0.10 94 1008.0
20260505182053 13 278 0.0 1.6 0.00 0.10 0.10 93 1008.0
20260505181018 14 280 0.0 1.6 0.00 0.10 0.10 91 1007.9
20260505180034 14 0.0 0.0 0.00 0.10 0.10 88 1008.0
20260505175019 14 0.0 1.6 0.00 0.10 0.10 89 1008.1
20260505174035 14 280 0.0 1.6 0.00 0.10 0.10 87 1008.1
20260505173039 14 285 0.0 1.6 0.00 0.10 0.10 86 1008.2
20260505172036 15 287 0.0 1.6 0.00 0.10 0.10 86 1008.1
20260505171020 15 287 1.6 3.2 0.00 0.10 0.10 85 1008.1
20260505170037 15 290 0.0 1.6 0.00 0.10 0.10 85 1008.1
20260505165021 15 276 0.0 1.6 0.00 0.10 0.10 83 1008.2
20260505164038 15 283 0.0 1.6 0.00 0.10 0.10 83 1008.2
20260505163022 15 300 0.0 1.6 0.00 0.10 0.10 82 1008.3
20260505162059 15 296 0.0 1.6 0.00 0.10 0.10 81 1008.3
20260505161023 15 290 0.0 3.2 0.00 0.10 0.10 81 1008.5
20260505153024 15 296 0.0 1.6 0.00 0.10 0.10 91 1008.6
20260505152041 15 295 0.0 3.2 0.00 0.10 0.10 91 1008.7
20260505151025 15 293 0.0 1.6 0.03 0.10 0.10 90 1008.7
20260505124031 16 289 1.6 4.8 0.00 0.00 0.00 81 1009.6
20260505123048 16 294 1.6 1.6 0.00 0.00 0.00 80 1009.6
20260505122032 16 282 1.6 3.2 0.00 0.00 0.00 78 1009.7
20260505121017 16 293 1.6 8.0 0.00 0.00 0.00 77 1009.6
20260505120017 16 281 1.6 4.8 0.00 0.00 0.00 73 1009.8
20260505115017 17 294 1.6 3.2 0.00 0.00 0.00 73 1009.7
20260505114018 16 293 1.6 3.2 0.00 0.00 0.00 71 1009.6
20260505113018 17 279 1.6 9.7 0.00 0.00 0.00 70 1009.8
20260505112019 16 279 3.2 11.3 0.00 0.00 0.00 71 1009.7
20260505111019 17 295 1.6 3.2 0.00 0.00 0.00 70 1009.8
20260505102021 18 288 3.2 11.3 0.00 0.00 0.00 63 1009.9
20260505101022 18 295 1.6 8.0 0.00 0.00 0.00 63 1010.0
20260505100022 19 287 1.6 9.7 0.00 0.00 0.00 62 1010.0
20260505095022 18 273 3.2 9.7 0.00 0.00 0.00 64 1010.0
20260505094043 17 306 1.6 8.0 0.00 0.00 0.00 66 1010.0
20260505093023 18 289 1.6 8.0 0.00 0.00 0.00 66 1010.1
20260505092023 18 283 3.2 4.8 0.00 0.00 0.00 66 1010.2
20260505091024 17 289 1.6 9.7 0.00 0.00 0.00 65 1010.2
20260505090025 18 294 1.6 3.2 0.00 0.00 0.00 64 1010.1
20260505085025 18 272 0.0 3.2 0.00 0.00 0.00 65 1010.1
20260505084045 17 284 0.0 1.6 0.00 0.00 0.00 67 1010.2
20260505083026 18 292 0.0 3.2 0.00 0.00 0.00 65 1010.1
20260505082026 18 301 0.0 3.2 0.00 0.00 0.00 64 1010.2
20260505081027 18 291 1.6 4.8 0.00 0.00 0.00 64 1010.2
20260505080027 17 307 0.0 1.6 0.00 0.00 0.00 66 1010.4
20260505075028 17 319 0.0 1.6 0.00 0.00 0.00 69 1010.4
20260505074108 17 339 0.0 1.6 0.00 0.00 0.00 69 1010.4
20260505073028 16 294 0.0 1.6 0.00 0.00 0.00 72 1010.5
20260505072029 15 305 0.0 1.6 0.00 0.00 0.00 76 1010.6
20260505071029 15 288 0.0 1.6 0.00 0.00 0.00 78 1010.7